This is the latest recevied weather packets stored in our database for station/object KI4NG. If no packets are shown the sender has not sent any weather packets the latest 1 day(s).
| Time | Temp. | Humidity | Pressure | Rain* | Wind** | Luminosity | Snow |
|---|---|---|---|---|---|---|---|
| 1778026524 | 20° C | 55% | 1010.6 hPa | 0 mm | 2.24 m/s, 219° | 7 W/m² | - |
| 1778026222 | 20° C | 56% | 1010.5 hPa | 0 mm | 0.45 m/s, 195° | 12 W/m² | - |
| 1778025919 | 20.56° C | 55% | 1010.1 hPa | 0 mm | 2.24 m/s, 199° | 13 W/m² | - |
| 1778025617 | 20.56° C | 55% | 1010.1 hPa | 0 mm | 4.02 m/s, 201° | 14 W/m² | - |
| 1778025315 | 20.56° C | 56% | 1010.4 hPa | 0 mm | 3.13 m/s, 124° | 23 W/m² | - |
| 1778025011 | 20.56° C | 58% | 1010.6 hPa | 0 mm | 1.34 m/s, 226° | 29 W/m² | - |
| 1778024708 | 20.56° C | 59% | 1010.6 hPa | 0 mm | 1.79 m/s, 205° | 24 W/m² | - |
| 1778024405 | 20.56° C | 57% | 1010.6 hPa | 0 mm | 2.24 m/s, 234° | 18 W/m² | - |
| 1778024102 | 20.56° C | 58% | 1010.6 hPa | 0 mm | 1.34 m/s, 185° | 25 W/m² | - |
| 1778023799 | 20.56° C | 57% | 1010.9 hPa | 0 mm | 3.58 m/s, 118° | 37 W/m² | - |
| 1778023498 | 20.56° C | 56% | 1011 hPa | 0 mm | 4.02 m/s, 165° | 41 W/m² | - |
| 1778023194 | 21.11° C | 56% | 1011 hPa | 0 mm | 3.13 m/s, 205° | 58 W/m² | - |
| 1778022892 | 21.11° C | 56% | 1011.2 hPa | 0 mm | 1.34 m/s, 108° | 47 W/m² | - |
| 1778022590 | 21.11° C | 56% | 1010.9 hPa | 0 mm | 1.34 m/s, 180° | 48 W/m² | - |
| 1778022287 | 21.11° C | 54% | 1010.9 hPa | 0 mm | 2.24 m/s, 200° | 52 W/m² | - |
| 1778021983 | 21.67° C | 54% | 1011.1 hPa | 0 mm | 3.13 m/s, 205° | 84 W/m² | - |
| 1778021681 | 21.67° C | 53% | 1011 hPa | 0 mm | 1.79 m/s, 211° | 94 W/m² | - |
| 1778021376 | 21.67° C | 52% | 1010.8 hPa | 0 mm | 3.13 m/s, 172° | 88 W/m² | - |
| 1778021073 | 21.67° C | 52% | 1010.7 hPa | 0 mm | 2.68 m/s, 118° | 209 W/m² | - |
| 1778020771 | 21.67° C | 53% | 1010.9 hPa | 0 mm | 3.13 m/s, 185° | 215 W/m² | - |
| 1778020467 | 21.67° C | 53% | 1011 hPa | 0 mm | 3.58 m/s, 204° | 86 W/m² | - |
| 1778020164 | 21.67° C | 54% | 1010.7 hPa | 0 mm | 0.89 m/s, 162° | 136 W/m² | - |
| 1778019860 | 21.11° C | 55% | 1010.8 hPa | 0 mm | 3.13 m/s, 212° | 269 W/m² | - |
| 1778019556 | 21.11° C | 55% | 1010.7 hPa | 0 mm | 4.02 m/s, 102° | 209 W/m² | - |
| 1778019254 | 21.11° C | 55% | 1011 hPa | 0 mm | 2.68 m/s, 241° | 114 W/m² | - |
* Rain latest hour (hover to see other rain measurements)
** Current wind speed in m/s (hover to see current wind gust speed)